.
WxDataArchive / Data Records for 2009-01-28
2009-01-27 January 2009 2009-01-29

Data Records for Wednesday, 28 January 2009

Time	Temp	Chill	HIndex	Humid	Dewpt	 Wind 	HiWind	WindDir	Rain 	Barom 
-----	----	-----	------	-----	-----	------	------	-------	-----	----- 
00:00	18.3	18.3	18.3	88	15.4	0	3	90	0.00	30.092 
00:05	18.3	18.3	18.3	88	15.4	0	3	68	0.00	30.086 
00:10	18.3	18.3	18.3	88	15.4	0	3	68	0.00	30.085 
00:15	18.1	18.1	18.1	88	15.2	1	3	112	0.00	30.081 
00:20	18.1	18.1	18.1	88	15.2	0	3	112	0.00	30.081 
00:25	18.1	18.1	18.1	88	15.2	0	1	22	0.00	30.079 
00:30	18.1	18.1	18.1	88	15.2	1	3	45	0.00	30.077 
00:35	18.1	18.1	18.1	88	15.2	0	2	135	0.00	30.077 
00:40	18.1	18.1	18.1	88	15.2	0	2	0	0.00	30.073 
00:45	18.1	18.1	18.1	87	14.9	1	4	90	0.00	30.065 
00:50	18.0	18.0	18.0	87	14.8	1	3	90	0.00	30.063 
00:55	18.0	18.0	18.0	87	14.8	1	2	135	0.00	30.061 
01:00	18.0	18.0	18.0	87	14.8	0	3	68	0.00	30.053 
01:05	18.0	18.0	18.0	87	14.8	1	3	68	0.00	30.049 
01:10	18.0	18.0	18.0	87	14.8	1	3	90	0.00	30.048 
01:15	18.0	18.0	18.0	87	14.8	0	2	68	0.00	30.049 
01:20	18.0	18.0	18.0	87	14.8	0	2	68	0.00	30.048 
01:25	18.0	18.0	18.0	88	15.1	0	2	68	0.00	30.048 
01:30	18.0	18.0	18.0	88	15.1	0	2	68	0.00	30.038 
01:35	18.0	18.0	18.0	88	15.1	1	3	68	0.00	30.033 
01:40	18.0	18.0	18.0	87	14.8	0	2	112	0.00	30.033 
01:45	18.0	18.0	18.0	88	15.1	0	1	112	0.00	30.032 
01:50	18.0	18.0	18.0	87	14.8	1	2	112	0.00	30.026 
01:55	17.8	17.8	17.8	87	14.6	1	3	90	0.00	30.020 
02:00	17.8	17.8	17.8	87	14.6	1	4	90	0.00	30.013 
02:05	17.8	17.8	17.8	87	14.6	1	3	45	0.00	30.006 
02:10	17.8	17.8	17.8	87	14.6	1	3	90	0.00	30.002 
02:15	17.8	17.8	17.8	87	14.6	1	3	22	0.00	30.001 
02:20	17.8	17.8	17.8	87	14.6	0	2	68	0.00	29.997 
02:25	17.8	17.8	17.8	87	14.6	1	4	45	0.00	29.989 
02:30	17.7	17.7	17.7	87	14.5	1	3	112	0.00	29.985 
02:35	17.7	17.7	17.7	87	14.5	1	3	22	0.00	29.983 
02:40	17.7	17.7	17.7	87	14.5	1	3	22	0.00	29.979 
02:45	17.7	17.7	17.7	87	14.5	0	2	45	0.00	29.984 
02:50	17.7	17.7	17.7	87	14.5	1	3	45	0.00	29.986 
02:55	17.7	17.7	17.7	87	14.5	0	2	90	0.00	29.985 
03:00	17.8	17.8	17.8	87	14.6	1	3	90	0.00	29.983 
03:05	17.8	17.8	17.8	87	14.6	0	2	45	0.00	29.979 
03:10	17.8	17.8	17.8	87	14.6	0	2	45	0.00	29.975 
03:15	17.8	17.8	17.8	87	14.6	0	3	22	0.00	29.977 
03:20	17.8	17.8	17.8	87	14.6	0	1	112	0.00	29.978 
03:25	17.8	17.8	17.8	87	14.6	0	2	135	0.00	29.969 
03:30	17.8	17.8	17.8	87	14.6	0	2	135	0.00	29.970 
03:35	17.8	17.8	17.8	87	14.6	0	2	45	0.00	29.968 
03:40	17.8	17.8	17.8	87	14.6	0	2	45	0.00	29.955 
03:45	17.8	17.8	17.8	87	14.6	1	4	45	0.00	29.954 
03:50	17.8	17.8	17.8	87	14.6	0	2	68	0.00	29.953 
03:55	17.8	17.8	17.8	87	14.6	0	2	68	0.00	29.959 
04:00	17.8	17.8	17.8	87	14.6	0	2	68	0.00	29.955 
04:05	17.8	17.8	17.8	87	14.6	0	2	112	0.00	29.956 
04:10	17.8	17.8	17.8	87	14.6	0	3	22	0.00	29.953 
04:15	17.8	17.8	17.8	87	14.6	0	1	22	0.00	29.956 
04:20	17.8	17.8	17.8	87	14.6	0	1	22	0.00	29.954 
04:25	17.8	17.8	17.8	87	14.6	0	2	158	0.00	29.954 
04:30	17.8	17.8	17.8	87	14.6	0	2	0	0.00	29.953 
04:35	17.8	17.8	17.8	87	14.6	0	2	0	0.00	29.945 
04:40	17.7	17.7	17.7	87	14.5	0	2	0	0.00	29.941 
04:45	17.7	17.7	17.7	87	14.5	0	2	22	0.00	29.930 
04:50	17.7	17.7	17.7	87	14.5	0	3	112	0.00	29.927 
04:55	17.5	17.5	17.5	87	14.3	0	2	22	0.00	29.931 
05:00	17.5	17.5	17.5	87	14.3	1	2	22	0.00	29.920 
05:05	17.5	17.5	17.5	87	14.3	0	4	68	0.00	29.918 
05:10	17.5	17.5	17.5	87	14.3	0	1	68	0.00	29.925 
05:15	17.3	17.3	17.3	87	14.1	0	1	68	0.00	29.909 
05:20	17.3	17.3	17.3	87	14.1	0	2	68	0.00	29.893 
05:25	17.3	17.3	17.3	87	14.1	0	3	68	0.00	29.881 
05:30	17.2	17.2	17.2	87	14.0	0	1	68	0.00	29.892 
05:35	17.2	17.2	17.2	87	14.0	0	3	45	0.00	29.910 
05:40	17.2	17.2	17.2	87	14.0	0	2	270	0.00	29.920 
05:45	17.2	17.2	17.2	87	14.0	0	1	270	0.00	29.925 
05:50	17.2	17.2	17.2	87	14.0	0	1	270	0.00	29.923 
05:55	17.2	17.2	17.2	87	14.0	1	2	270	0.00	29.907 
06:00	17.2	17.2	17.2	87	14.0	0	2	292	0.00	29.903 
06:05	17.2	17.2	17.2	87	14.0	0	2	292	0.00	29.910 
06:10	17.2	17.2	17.2	87	14.0	0	1	292	0.00	29.911 
06:15	17.2	17.2	17.2	87	14.0	0	1	292	0.00	29.902 
06:20	17.2	17.2	17.2	87	14.0	0	1	292	0.00	29.897 
06:25	17.2	17.2	17.2	87	14.0	0	2	292	0.00	29.907 
06:30	17.2	17.2	17.2	88	14.3	0	2	338	0.00	29.917 
06:35	17.3	17.3	17.3	88	14.4	0	2	338	0.00	29.914 
06:40	17.3	17.3	17.3	88	14.4	0	2	338	0.00	29.912 
06:45	17.3	17.3	17.3	88	14.4	0	1	338	0.00	29.895 
06:50	17.3	17.3	17.3	88	14.4	1	2	338	0.00	29.879 
06:55	17.3	17.3	17.3	88	14.4	0	1	315	0.00	29.904 
07:00	17.3	17.3	17.3	88	14.4	0	3	315	0.00	29.912 
07:05	17.3	17.3	17.3	88	14.4	0	2	315	0.00	29.896 
07:10	17.3	17.3	17.3	87	14.1	0	2	315	0.00	29.883 
07:15	17.3	17.3	17.3	88	14.4	0	2	315	0.00	29.894 
07:20	17.3	17.3	17.3	87	14.1	0	3	0	0.00	29.890 
07:25	17.2	17.2	17.2	87	14.0	0	2	338	0.00	29.890 
07:30	17.2	17.2	17.2	87	14.0	0	2	338	0.00	29.875 
07:35	17.2	17.2	17.2	87	14.0	0	1	0	0.00	29.880 
07:40	17.2	17.2	17.2	87	14.0	0	2	338	0.00	29.895 
07:45	17.2	17.2	17.2	87	14.0	0	3	315	0.00	29.893 
07:50	17.2	17.2	17.2	87	14.0	0	3	292	0.00	29.898 
07:55	17.0	17.0	17.0	87	13.8	0	2	292	0.00	29.884 
08:00	17.0	17.0	17.0	87	13.8	0	3	292	0.00	29.878 
08:05	17.0	17.0	17.0	87	13.8	0	2	22	0.00	29.884 
08:10	16.9	16.9	16.9	87	13.7	0	2	292	0.00	29.881 
08:15	16.9	16.9	16.9	87	13.7	0	2	292	0.00	29.881 
08:20	16.9	16.9	16.9	87	13.7	0	2	270	0.00	29.882 
08:25	16.9	16.9	16.9	87	13.7	0	2	270	0.00	29.894 
08:30	16.9	16.9	16.9	87	13.7	0	2	270	0.00	29.886 
08:35	16.9	16.9	16.9	87	13.7	0	1	270	0.00	29.893 
08:40	16.9	16.9	16.9	87	13.7	0	1	270	0.00	29.890 
08:45	16.9	16.9	16.9	87	13.7	0	1	270	0.00	29.894 
08:50	16.9	16.9	16.9	87	13.7	0	1	270	0.00	29.901 
08:55	16.9	16.9	16.9	87	13.7	0	1	270	0.00	29.889 
09:00	16.9	16.9	16.9	87	13.7	0	1	270	0.00	29.892 
09:05	16.9	16.9	16.9	87	13.7	0	1	270	0.00	29.882 
09:10	16.9	16.9	16.9	87	13.7	0	1	270	0.00	29.890 
09:15	16.9	16.9	16.9	87	13.7	0	2	338	0.00	29.879 
09:20	17.0	17.0	17.0	87	13.8	0	1	338	0.00	29.888 
09:25	17.0	17.0	17.0	87	13.8	0	3	338	0.00	29.895 
09:30	17.0	17.0	17.0	87	13.8	0	1	270	0.00	29.907 
09:35	17.2	17.2	17.2	87	14.0	0	3	338	0.00	29.900 
09:40	17.2	17.2	17.2	87	14.0	0	2	315	0.00	29.898 
09:45	17.3	17.3	17.3	87	14.1	0	2	315	0.00	29.901 
09:50	17.5	17.5	17.5	87	14.3	0	2	292	0.00	29.899 
09:55	17.7	17.7	17.7	87	14.5	0	2	292	0.00	29.903 
10:00	17.8	17.8	17.8	86	14.3	0	1	292	0.00	29.907 
10:05	17.8	17.8	17.8	86	14.3	1	3	292	0.00	29.907 
10:10	18.0	18.0	18.0	86	14.5	0	3	315	0.00	29.906 
10:15	18.1	18.1	18.1	86	14.6	0	3	338	0.00	29.907 
10:20	18.3	18.3	18.3	86	14.8	1	3	270	0.00	29.909 
10:25	18.6	18.6	18.6	86	15.1	0	2	270	0.00	29.910 
10:30	18.8	18.8	18.8	85	15.1	1	3	270	0.00	29.910 
10:35	18.9	18.9	18.9	85	15.2	1	4	292	0.00	29.910 
10:40	19.1	19.1	19.1	85	15.3	0	2	338	0.00	29.908 
10:45	19.2	19.2	19.2	85	15.4	1	3	315	0.00	29.908 
10:50	19.4	19.4	19.4	84	15.4	1	3	225	0.00	29.908 
10:55	19.4	19.4	19.4	84	15.4	0	2	338	0.00	29.912 
11:00	19.5	19.5	19.5	84	15.5	0	3	338	0.00	29.911 
11:05	19.9	19.9	19.9	84	15.9	1	2	338	0.00	29.912 
11:10	20.2	20.2	20.2	83	15.9	1	3	315	0.00	29.913 
11:15	20.2	20.2	20.2	82	15.6	1	3	315	0.00	29.913 
11:20	20.0	20.0	20.0	81	15.1	1	3	338	0.00	29.912 
11:25	20.0	20.0	20.0	81	15.1	1	5	338	0.00	29.916 
11:30	20.0	20.0	20.0	80	14.8	1	3	338	0.00	29.913 
11:35	20.0	20.0	20.0	80	14.8	1	3	270	0.00	29.912 
11:40	20.2	20.2	20.2	80	15.0	1	4	248	0.00	29.914 
11:45	20.5	20.5	20.5	80	15.3	1	3	292	0.00	29.921 
11:50	20.8	20.8	20.8	80	15.6	1	2	315	0.00	29.921 
11:55	21.0	21.0	21.0	79	15.5	1	4	315	0.00	29.922 
12:00	21.1	21.1	21.1	78	15.3	1	3	315	0.00	29.922 
12:05	21.1	21.1	21.1	77	15.0	1	3	270	0.00	29.922 
12:10	21.3	21.3	21.3	77	15.2	1	3	270	0.00	29.925 
12:15	21.4	21.4	21.4	76	15.0	1	3	292	0.00	29.926 
12:20	21.4	21.4	21.4	75	14.7	1	3	315	0.00	29.925 
12:25	21.1	21.1	21.1	74	14.1	1	5	315	0.00	29.931 
12:30	21.1	21.1	21.1	75	14.4	2	5	315	0.00	29.930 
12:35	21.1	21.1	21.1	74	14.1	1	3	338	0.00	29.928 
12:40	21.6	21.6	21.6	75	14.9	1	4	315	0.00	29.932 
12:45	21.8	21.8	21.8	74	14.8	1	4	248	0.00	29.932 
12:50	21.3	21.3	21.3	72	13.7	2	6	270	0.00	29.933 
12:55	21.1	21.1	21.1	73	13.8	2	5	270	0.00	29.937 
13:00	21.3	21.3	21.3	73	14.0	2	4	270	0.00	29.936 
13:05	21.6	21.6	21.6	73	14.3	1	3	270	0.00	29.933 
13:10	21.6	21.6	21.6	72	14.0	2	4	270	0.00	29.930 
13:15	21.6	21.6	21.6	72	14.0	2	7	270	0.00	29.929 
13:20	21.8	21.8	21.8	72	14.2	2	4	270	0.00	29.931 
13:25	21.8	21.8	21.8	71	13.9	3	5	270	0.00	29.933 
13:30	21.6	21.6	21.6	71	13.7	2	4	270	0.00	29.935 
13:35	21.8	21.8	21.8	72	14.2	2	5	248	0.00	29.936 
13:40	22.2	22.2	22.2	72	14.6	2	4	270	0.00	29.937 
13:45	22.4	22.4	22.4	72	14.8	2	4	270	0.00	29.936 
13:50	22.5	22.5	22.5	71	14.5	2	5	270	0.00	29.936 
13:55	22.7	22.7	22.7	71	14.7	2	6	270	0.00	29.935 
14:00	22.9	22.9	22.9	71	14.9	2	6	270	0.00	29.935 
14:05	22.9	22.9	22.9	70	14.6	2	4	270	0.00	29.936 
14:10	23.0	23.0	23.0	70	14.7	2	3	270	0.00	29.936 
14:15	23.2	23.2	23.2	70	14.9	2	5	270	0.00	29.937 
14:20	23.3	23.3	23.3	70	15.0	2	5	270	0.00	29.936 
14:25	23.5	23.5	23.5	70	15.2	2	4	270	0.00	29.934 
14:30	23.6	23.6	23.6	69	14.9	2	4	270	0.00	29.937 
14:35	23.3	23.3	23.3	67	14.0	3	5	338	0.00	29.940 
14:40	22.9	22.9	22.9	67	13.6	2	6	270	0.00	29.945 
14:45	22.9	22.9	22.9	68	13.9	2	5	270	0.00	29.945 
14:50	22.9	22.9	22.9	68	13.9	2	5	270	0.00	29.947 
14:55	23.0	23.0	23.0	67	13.7	2	7	270	0.00	29.941 
15:00	23.2	23.2	23.2	66	13.6	2	4	315	0.00	29.952 
15:05	23.8	23.8	23.8	67	14.5	1	4	248	0.00	29.952 
15:10	23.9	23.9	23.9	67	14.6	2	4	270	0.00	29.963 
15:15	23.8	23.8	23.8	65	13.8	3	6	270	0.00	29.966 
15:20	23.8	23.8	23.8	65	13.8	2	5	248	0.00	29.968 
15:25	23.6	23.6	23.6	66	13.9	3	6	270	0.00	29.981 
15:30	23.9	23.9	23.9	66	14.2	2	5	270	0.00	29.982 
15:35	23.8	23.8	23.8	65	13.8	3	7	270	0.00	29.985 
15:40	23.6	23.6	23.6	65	13.6	3	6	270	0.00	29.994 
15:45	23.3	23.3	23.3	66	13.6	3	6	248	0.00	30.001 
15:50	23.2	23.2	23.2	67	13.9	2	5	270	0.00	30.000 
15:55	23.2	23.2	23.2	68	14.2	2	5	248	0.00	30.001 
16:00	23.3	23.3	23.3	69	14.7	2	5	270	0.00	30.001 
16:05	23.3	23.3	23.3	70	15.0	3	5	270	0.00	30.011 
16:10	23.2	23.2	23.2	72	15.5	3	7	270	0.00	30.014 
16:15	23.2	23.2	23.2	72	15.5	3	5	270	0.00	30.016 
16:20	23.3	23.3	23.3	72	15.6	1	3	248	0.00	30.015 
16:25	23.5	23.5	23.5	71	15.5	3	7	270	0.00	30.015 
16:30	23.2	23.2	23.2	70	14.9	2	5	248	0.00	30.016 
16:35	23.0	23.0	23.0	70	14.7	1	4	270	0.00	30.016 
16:40	22.9	22.9	22.9	70	14.6	3	7	248	0.00	30.016 
16:45	22.7	22.7	22.7	70	14.4	2	4	270	0.00	30.019 
16:50	22.5	22.5	22.5	71	14.5	2	5	270	0.00	30.019 
16:55	22.4	22.4	22.4	71	14.4	3	9	270	0.00	30.015 
17:00	22.2	22.2	22.2	72	14.6	2	5	248	0.00	30.017 
17:05	22.1	22.1	22.1	73	14.8	3	6	270	0.00	30.020 
17:10	21.9	21.9	21.9	74	14.9	2	6	248	0.00	30.018 
17:15	21.8	21.8	21.8	74	14.8	2	6	248	0.00	30.017 
17:20	21.6	21.6	21.6	75	14.9	2	5	270	0.00	30.018 
17:25	21.4	21.4	21.4	75	14.7	2	6	248	0.00	30.018 
17:30	21.4	21.4	21.4	76	15.0	1	4	248	0.00	30.013 
17:35	21.3	21.3	21.3	75	14.6	1	5	248	0.00	30.008 
17:40	21.3	21.3	21.3	75	14.6	0	2	248	0.00	30.010 
17:45	21.1	21.1	21.1	74	14.1	2	5	248	0.00	30.006 
17:50	21.0	21.0	21.0	73	13.7	1	3	248	0.00	30.002 
17:55	20.6	20.6	20.6	73	13.3	1	6	248	0.00	29.997 
18:00	20.3	20.3	20.3	73	13.1	1	3	270	0.00	30.001 
18:05	19.9	19.9	19.9	73	12.7	1	3	248	0.00	30.004 
18:10	19.7	19.7	19.7	74	12.8	1	4	248	0.00	30.009 
18:15	19.4	19.4	19.4	74	12.5	1	4	248	0.00	30.015 
18:20	19.2	19.2	19.2	74	12.3	1	3	270	0.00	30.018 
18:25	18.9	18.9	18.9	75	12.3	1	4	248	0.00	30.018 
18:30	18.8	18.8	18.8	75	12.2	1	4	248	0.00	30.019 
18:35	18.6	18.6	18.6	75	12.0	1	4	248	0.00	30.020 
18:40	18.6	18.6	18.6	75	12.0	1	4	248	0.00	30.019 
18:45	18.4	18.4	18.4	76	12.1	1	3	248	0.00	30.025 
18:50	18.3	18.3	18.3	76	12.0	1	5	248	0.00	30.030 
18:55	18.3	18.3	18.3	76	12.0	2	5	248	0.00	30.031 
19:00	18.1	18.1	18.1	75	11.5	1	4	248	0.00	30.031 
19:05	18.0	18.0	18.0	75	11.4	1	3	248	0.00	30.028 
19:10	17.8	17.8	17.8	75	11.2	1	4	248	0.00	30.027 
19:15	17.8	17.8	17.8	74	10.9	2	5	248	0.00	30.029 
19:20	17.7	17.7	17.7	73	10.5	2	6	270	0.00	30.027 
19:25	17.7	17.7	17.7	72	10.2	1	3	248	0.00	30.024 
19:30	17.3	17.3	17.3	72	9.8	2	5	248	0.00	30.028 
19:35	17.3	17.3	17.3	72	9.8	1	6	248	0.00	30.032 
19:40	17.2	17.2	17.2	71	9.4	2	6	248	0.00	30.031 
19:45	17.0	17.0	17.0	71	9.2	2	4	248	0.00	30.030 
19:50	16.7	16.7	16.7	71	9.0	1	3	248	0.00	30.030 
19:55	16.5	16.5	16.5	71	8.8	1	3	248	0.00	30.031 
20:00	16.2	16.2	16.2	72	8.8	1	3	248	0.00	30.038 
20:05	16.1	16.1	16.1	73	9.0	0	3	225	0.00	30.038 
20:10	15.7	15.7	15.7	73	8.6	1	3	225	0.00	30.041 
20:15	15.6	15.6	15.6	74	8.8	1	4	248	0.00	30.044 
20:20	15.4	15.4	15.4	75	8.9	1	4	248	0.00	30.045 
20:25	15.2	15.2	15.2	75	8.7	1	4	248	0.00	30.045 
20:30	15.1	15.1	15.1	75	8.6	1	3	270	0.00	30.041 
20:35	14.8	14.8	14.8	75	8.3	1	4	248	0.00	30.040 
20:40	14.6	14.6	14.6	75	8.1	1	3	248	0.00	30.040 
20:45	14.4	14.4	14.4	75	8.0	1	4	248	0.00	30.043 
20:50	14.3	14.3	14.3	75	7.9	2	4	248	0.00	30.045 
20:55	14.1	14.1	14.1	75	7.7	1	4	248	0.00	30.042 
21:00	14.0	14.0	14.0	75	7.6	1	3	248	0.00	30.042 
21:05	13.8	13.8	13.8	75	7.4	1	2	248	0.00	30.041 
21:10	13.6	13.6	13.6	75	7.2	1	5	248	0.00	30.049 
21:15	13.5	13.5	13.5	75	7.1	1	4	248	0.00	30.050 
21:20	13.5	13.5	13.5	74	6.8	1	4	248	0.00	30.054 
21:25	13.3	13.3	13.3	74	6.6	1	4	248	0.00	30.058 
21:30	13.3	13.3	13.3	74	6.6	2	4	248	0.00	30.058 
21:35	13.3	13.3	13.3	74	6.6	2	6	248	0.00	30.058 
21:40	13.1	13.1	13.1	74	6.4	2	5	248	0.00	30.059 
21:45	13.1	13.1	13.1	73	6.1	2	4	248	0.00	30.057 
21:50	12.9	12.9	12.9	73	5.9	1	4	248	0.00	30.059 
21:55	12.8	12.8	12.8	73	5.8	1	5	248	0.00	30.060 
22:00	12.8	12.8	12.8	73	5.8	1	3	248	0.00	30.060 
22:05	12.6	12.6	12.6	73	5.6	2	5	248	0.00	30.061 
22:10	12.6	12.6	12.6	73	5.6	1	5	248	0.00	30.058 
22:15	12.6	12.6	12.6	74	5.9	2	5	248	0.00	30.058 
22:20	12.4	12.4	12.4	74	5.7	1	4	248	0.00	30.063 
22:25	12.4	12.4	12.4	74	5.7	2	4	248	0.00	30.063 
22:30	12.4	12.4	12.4	74	5.7	1	4	248	0.00	30.061 
22:35	12.3	12.3	12.3	74	5.6	1	4	248	0.00	30.061 
22:40	12.3	12.3	12.3	75	5.9	1	3	248	0.00	30.059 
22:45	12.3	12.3	12.3	75	5.9	2	4	248	0.00	30.059 
22:50	12.3	12.3	12.3	75	5.9	1	3	248	0.00	30.059 
22:55	12.1	12.1	12.1	75	5.7	1	3	248	0.00	30.060 
23:00	11.9	11.9	11.9	75	5.5	1	3	248	0.00	30.064 
23:05	11.9	11.9	11.9	76	5.8	2	4	248	0.00	30.060 
23:10	11.9	11.9	11.9	77	6.1	2	9	248	0.00	30.064 
23:15	11.9	11.9	11.9	76	5.8	2	4	248	0.00	30.056 
23:20	12.1	12.1	12.1	77	6.3	2	4	248	0.00	30.055 
23:25	11.9	11.9	11.9	77	6.1	2	6	248	0.00	30.052 
23:30	12.1	12.1	12.1	77	6.3	2	4	248	0.00	30.054 
23:35	11.9	11.9	11.9	77	6.1	1	3	248	0.00	30.055 
23:40	11.9	11.9	11.9	77	6.1	2	5	248	0.00	30.057 
23:45	11.9	11.9	11.9	77	6.1	2	4	248	0.00	30.059 
23:50	11.7	11.7	11.7	77	5.9	2	5	248	0.00	30.061 
23:55	11.7	11.7	11.7	77	5.9	2	5	270	0.00	30.061 

CoCoRaHS
IN-AL-39
A2 Web Hosting
Creative Commons License
GoDaddy
search engine by freefind advanced

loaded 2018-11-13 02:50:55 • last modified 2010-11-18 10:43:29
Privacy PolicyDisclaimer
• wx.awcolley.com is powered by PmWiki v.2002016 •
• all content (unless otherwise noted) © 2018 A W Colley